Mountain Home, Arkansas, United States (72653)
Lat: 36.34N, Lon: 92.39W
Wx Zone: ARZ005
Local Info
Past Weather Observations for Monday, April 14, 2014

NOTE: This archive is for the closest National Weather Service station to Mountain Home. Information may differ from the station used for current weather conditions.

Time Weather Temperature Dewpoint Humidity Pressure Winds Precip Visibility
23:53
Clear
34°F / 1°C 25°F / -4°C 70% 30.15 in
(1021 mb)
NW 3.5 mph
(NW 6 kph)
- 10SM
22:53
Clear
34°F / 1°C 25°F / -4°C 70% 30.15 in
(1021 mb)
Variable 3.5 mph
(Variable 6 kph)
- 10SM
21:53
Clear
36°F / 2°C 25°F / -4°C 65% 30.12 in
(1020 mb)
NNW 5.8 mph
(NNW 9 kph)
- 10SM
20:53
Partly Cloudy
37°F / 3°C 27°F / -3°C 65% 30.09 in
(1019 mb)
Variable 5.8 mph
(Variable 9 kph)
- 10SM
19:53
Overcast
37°F / 3°C 27°F / -3°C 65% 30.06 in
(1018 mb)
NNW 6.9 mph
(NNW 11 kph)
- 10SM
18:53
Overcast
37°F / 3°C 27°F / -3°C 65% 30.06 in
(1018 mb)
Variable 6.9 mph
(Variable 11 kph)
- 10SM
18:13
Mostly Cloudy
39°F / 4°C 27°F / -3°C 61% 30.04 in
(1017 mb)
NNW 10.4 mph
(NNW 17 kph)
- 10SM
18:02
Overcast
39°F / 4°C 27°F / -3°C 61% 30.04 in
(1017 mb)
NNW 12.7 mph
(NNW 20 kph)
- 10SM
17:53
Overcast
39°F / 4°C 28°F / -2°C 65% 30.04 in
(1017 mb)
Variable 6.9 mph
(Variable 11 kph)
- 10SM
17:49
Overcast
39°F / 4°C 27°F / -3°C 61% 30.04 in
(1017 mb)
NNW 8.1 mph
(NNW 13 kph)
- 10SM
17:42
Overcast
39°F / 4°C 27°F / -3°C 61% 30.04 in
(1017 mb)
NNW 12.7 mph
(NNW 20 kph)
- 10SM
16:53
Overcast
39°F / 4°C 28°F / -2°C 65% 30.01 in
(1016 mb)
N 10.4 mph
(N 17 kph)
- 10SM
16:50
Overcast
39°F / 4°C 28°F / -2°C 65% 30.01 in
(1016 mb)
NNW 10.4 mph
(NNW 17 kph)
- 10SM
15:53
Overcast
39°F / 4°C 28°F / -2°C 65% 30.01 in
(1016 mb)
NNW 12.7 mph
(NNW 20 kph)
- 10SM
14:53
Overcast
39°F / 4°C 30°F / -1°C 70% 30.01 in
(1016 mb)
NNW 10.4 mph
(NNW 17 kph)
- 10SM
13:53
Overcast
41°F / 5°C 34°F / 1°C 76% 30.01 in
(1016 mb)
NW 11.5 mph
(NW 19 kph)
- 10SM
12:53
Overcast
45°F / 7°C 34°F / 1°C 66% 29.95 in
(1014 mb)
NW 9.2 mph
(NW 15 kph)
- 10SM
11:53
Overcast
45°F / 7°C 34°F / 1°C 66% 29.95 in
(1014 mb)
Variable 6.9 mph
(Variable 11 kph)
- 10SM
10:53
Overcast
45°F / 7°C 34°F / 1°C 66% 29.92 in
(1013 mb)
NNW 9.2 mph
(NNW 15 kph)
- 10SM
09:53
Overcast
43°F / 6°C 36°F / 2°C 76% 29.92 in
(1013 mb)
NNW 8.1 mph
(NNW 13 kph)
- 10SM
08:53
Overcast
43°F / 6°C 36°F / 2°C 76% 29.92 in
(1013 mb)
NW 8.1 mph
(NW 13 kph)
- 10SM
08:05
Overcast
43°F / 6°C 36°F / 2°C 76% 29.89 in
(1012 mb)
NNW 8.1 mph
(NNW 13 kph)
- 10SM
07:53
Overcast
43°F / 6°C 37°F / 3°C 81% 29.89 in
(1012 mb)
NW 4.6 mph
(NW 7 kph)
- 9SM
07:28
Overcast
43°F / 6°C 37°F / 3°C 81% 29.89 in
(1012 mb)
Variable 6.9 mph
(Variable 11 kph)
- 10SM
06:53
Overcast
43°F / 6°C 37°F / 3°C 81% 29.86 in
(1011 mb)
Variable 6.9 mph
(Variable 11 kph)
- 10SM
06:33
Overcast
43°F / 6°C 37°F / 3°C 81% 29.83 in
(1010 mb)
NW 9.2 mph
(NW 15 kph)
- 10SM
05:53
Overcast
43°F / 6°C 37°F / 3°C 81% 29.8 in
(1009 mb)
NW 8.1 mph
(NW 13 kph)
- 10SM
05:22
Overcast
43°F / 6°C 39°F / 4°C 87% 29.8 in
(1009 mb)
Variable 5.8 mph
(Variable 9 kph)
- 10SM
05:03
Overcast
43°F / 6°C 39°F / 4°C 87% 29.8 in
(1009 mb)
Variable 6.9 mph
(Variable 11 kph)
- 10SM
04:53
Overcast
43°F / 6°C 39°F / 4°C 87% 29.77 in
(1008 mb)
Variable 5.8 mph
(Variable 9 kph)
- 10SM
04:02
Overcast
45°F / 7°C 39°F / 4°C 81% 29.77 in
(1008 mb)
NW 11.5 mph
(NW 19 kph)
- 10SM
03:53
Overcast
46°F / 8°C 41°F / 5°C 82% 29.77 in
(1008 mb)
NW 9.2 mph
(NW 15 kph)
- 10SM
02:53
Overcast
48°F / 9°C 43°F / 6°C 82% 29.74 in
(1007 mb)
NW 10.4 mph
(NW 17 kph)
- 10SM
01:53
Overcast
52°F / 11°C 48°F / 9°C 88% 29.68 in
(1005 mb)
NW 10.4 mph
(NW 17 kph)
0.00 in
(0.00 mm)
10SM
01:18
Overcast
55°F / 13°C 54°F / 12°C 94% 29.68 in
(1005 mb)
Variable 5.8 mph
(Variable 9 kph)
- 8SM
00:53
Overcast
55°F / 13°C 54°F / 12°C 94% 29.65 in
(1004 mb)
Variable 3.5 mph
(Variable 6 kph)
- 10SM
00:44
Mostly Cloudy
55°F / 13°C 54°F / 12°C 94% 29.65 in
(1004 mb)
Variable 4.6 mph
(Variable 7 kph)
- 10SM
Time Weather Temperature Dewpoint Humidity Pressure Winds Precip Visibility


Weather for websites

WeatherForYou.com, LLC is not responsible for any damages or problems caused by this service. Current weather conditions are obtained from the closest station including government and personal stations which may have varying degrees of accuracy. Weather forecasts are derived from the NOAA NDFD. Like all things, this site belongs to Jesus Christ... He just trusts me to maintain it. If you have any questions or comments email webmaster@weatherforyou.com

Copyright © 2014, WeatherForYou.com LLC. All rights reserved.